Regional Weather Roundup
Issued by NWS

Home | Current Version | Previous Version | Graphics & Text | Print | Product List | Glossary On
Versions: 1 2 3 4 5 6 7 8 9 10 11 12 13 14 15 16 17 18 19 20 21 22 23 24 25 26 27
000
ASUS45 KSLC 190910
RWRUT

UTAH REGIONAL WEATHER ROUNDUP
NATIONAL WEATHER SERVICE SALT LAKE CITY UT
200 AM MST THU JAN 19 2017

UTZ001>011-023>025-191000-

NORTHERN UTAH

CITY           SKY/WX    TMP DP  RH WIND       PRES   REMARKS
BRIGHAM CITY     N/A     22  18  83 CALM      29.84F
HILL AFB       MOCLDY    22  17  80 E6        29.81F WCI  15
LOGAN          MOCLDY    16  12  84 CALM      29.83F FOG
OGDEN          MOCLDY    21  18  88 CALM      29.81F FOG
SALT LAKE CITY CLOUDY    26  22  84 NW8       29.83F FOG     WCI  18
TOOELE VALLEY  CLOUDY    28  25  86 CALM      29.84F FOG
WENDOVER       CLOUDY    23  19  86 CALM      29.84F
HEBER CITY     MOCLDY    12   9  85 CALM      29.81F
WEST JORDAN    MOCLDY    24  24 100 NW10      29.81F WCI  13

$$

UTZ011>015-024>027-191000-

CENTRAL/NORTHEAST UTAH

CITY           SKY/WX    TMP DP  RH WIND       PRES   REMARKS
PROVO AIRPORT  MOCLDY    25  20  81 E5        29.84F WCI  19
MOAB/CANYONLAN PTCLDY    27  26  96 W5        29.91F WCI  22
DELTA          CLOUDY    37  25  60 S24G32    29.84R WCI  26
PRICE          MOCLDY    14  10  84 CALM      29.91F
ROOSEVELT      CLOUDY     0  -6  78 W3        30.02F
VERNAL         CLOUDY    10   6  84 CALM      29.99F FOG

$$

UTZ013>016-019>022-027-191000-

SOUTHERN UTAH

CITY           SKY/WX    TMP DP  RH WIND       PRES   REMARKS
BRYCE CANYON   CLOUDY    16  10  77 CALM      29.91F
CEDAR CITY     CLOUDY    39  20  46 SW15      29.85F WCI  31
MILFORD        CLOUDY    37  25  61 SW16      29.84F WCI  28
ST GEORGE      PTSUNNY   41  32  70 NW8       29.95F
HANKSVILLE     PTCLDY    27  23  86 MISG      29.95F
BLANDING       CLEAR     27  24  89 CALM      30.01S

$$

REGIONAL REPORTS     COLORADO/ARIZONA

CITY           SKY/WX    TMP DP  RH WIND       PRES   REMARKS
CRAIG, CO      CLOUDY     3  -3  76 CALM      29.92F
GRAND JUNCTION CLOUDY    28  26  92 E6        29.93F WCI  22
RIFLE, CO      CLOUDY    23  20  88 CALM      29.96F
MONTROSE, CO   CLOUDY    25  22  88 SE6       29.98S WCI  18
CORTEZ, CO     CLOUDY    24  22  91 CALM      29.96F
COLORADO CITY  PTSUNNY   34  32  93 CALM      29.97F
PAGE, AZ       PTCLDY    34  27  75 SE6       29.92F WCI  29
GRAND CANYON   CLOUDY    30  29  96 SW7       29.99F WCI  23
KINGMAN, AZ    CLOUDY    48  23  37 S12       29.97F
FLAGSTAFF, AZ  CLOUDY    32  29  88 W9        30.00F WCI  24

$$

REGIONAL REPORTS    NEVADA/IDAHO/WYOMING

CITY           SKY/WX    TMP DP  RH WIND       PRES   REMARKS
LAS VEGAS, NV  CLOUDY    49  36  61 S8        29.89F
ELY, NY        FLURRIES  29  25  85 S15G25    29.81F WCI  18
ELKO, NV       CLOUDY    35  28  75 S13G21    29.72F WCI  26
POCATELLO, ID  LGT SNOW  25  23  92 N6        29.78F VSB 3/4 WCI  18
BURLEY, ID     FLURRIES  35  29  78 S22G30    29.69F WCI  23
FORT BRIDGER,  CLOUDY     8   3  78 CALM      29.82F
EVANSTON, WY   CLOUDY    27  10  49 SE6       29.77F WCI  20
ROCK SPRINGS,  CLOUDY     4   0  83 CALM      29.81F

$$




USA.gov is the U.S. government's official web portal to all federal, state and local government web resources and services.